Back to catalog

THORAD AGENA D DEB

AliveSSO
NORAD 4854·DEBRIS·🇺🇸 United States

Launched Apr 8, 1970 from Vandenberg Space Force Base

Loading…

Next Passes (next 24 hours)

TLE

FreshSource: Space-Track

Epoch: Sep 13, 2026, 11:17 UTC

1 04854U 70025EJ  26256.47064992  .00000180  00000-0  31150-3 0  9999
2 04854  99.3540  86.9738 0017087 314.9616  74.4792 13.57113803784281

Track THORAD AGENA D DEB in real time with AllMySat

Download on the App Store